Regional Weather Roundup
Issued by NWS

Home | Current Version | Previous Version | Graphics & Text | Print | Product List | Glossary On
Versions: 1 2 3 4 5 6 7 8 9 10 11 12 13 14 15 16 17 18 19 20 21 22 23 24 25 26 27 28 29 30 31 32 33 34 35 36 37 38 39 40 41 42 43 44 45 46 47 48 49 50
000
ASUS43 KFSD 221502
RWRSD

WEATHER ROUNDUP FOR SOUTH DAKOTA
NATIONAL WEATHER SERVICE SIOUX FALLS SD
1000 AM CDT WED MAR 22 2017

NOTE: "FAIR" INDICATES FEW OR NO CLOUDS BELOW 12,000 FEET WITH NO
SIGNIFICANT WEATHER AND/OR OBSTRUCTIONS TO VISIBILITY.


SDZ001>005-009-010-012>017-221600-
NORTHWEST AND NORTH CENTRAL SOUTH DAKOTA

CITY           SKY/WX    TMP DP  RH WIND       PRES   REMARKS
BUFFALO          N/A     32  29  88 SE16      29.82F WCI  21
FAITH            N/A     33  30  88 SE33G44   29.93F WCI  18
MOBRIDGE       PTSUNNY   33  23  66 SE28G35   30.10F WCI  20
$$

SDZ012>016-024>037-041>051-057-063-072>074-221600-
SOUTHWEST AND SOUTH CENTRAL SOUTH DAKOTA

CITY           SKY/WX    TMP DP  RH WIND       PRES   REMARKS
RAPID CTY ARPT CLOUDY    39  34  82 S35G44    29.91F
PIERRE         CLOUDY    31  27  85 SE23G29   30.16F WCI  18
CUSTER         CLOUDY    32  29  88 W5        29.94S WCI  27
ELLSWORTH AFB  CLOUDY    40  37  88 S26G38    29.85F
PHILIP         SUNNY     38  31  76 S23G31    30.04F
PINE RIDGE     CLOUDY    40  33  76 S33G46    29.97F
SPEARFISH      FAIR      41  37  87 CALM      29.84S
WINNER         FAIR      35  29  78 SE22G31   30.21S WCI  23
$$

SDZ004>011-016>023-039-040-221600-
NORTHEAST SOUTH DAKOTA

CITY           SKY/WX    TMP DP  RH WIND       PRES   REMARKS
ABERDEEN       CLOUDY    29  17  61 S20G25    30.31F WCI  16
WATERTOWN      CLOUDY    26  13  57 S18       30.35R WCI  13
BROOKINGS      CLOUDY    27  15  61 S20       30.38S WCI  13
SISSETON         N/A     25  15  66 S22       30.38F WCI  10
$$

SDZ017-020-022-023-036>040-048>070-221600-
SOUTHEAST SOUTH DAKOTA

CITY           SKY/WX    TMP DP  RH WIND       PRES   REMARKS
SIOUX FALLS    CLOUDY    30  16  56 SE14      30.41S WCI  19
HURON          CLOUDY    30  16  56 SE24G32   30.31F WCI  16
CHAMBERLAIN    CLOUDY    32  29  87 SE20G28   30.25F WCI  20
MITCHELL       CLOUDY    31  19  61 S20       30.36S WCI  19
YANKTON        CLOUDY    30  19  64 SE16      30.38F WCI  19
$$

ABBREVIATIONS USED IN REMARKS
   TC - TEMPERATURE IN CELSIUS
  WCI - WIND CHILL INDEX
   HX - HEAT INDEX
  VSB - VISIBILITY





USA.gov is the U.S. government's official web portal to all federal, state and local government web resources and services.